When you browse on this site, cookies collect data to enhance your experience and personalize the content and advertising you see.
Visit our Privacy Policy to learn more. By continuing to use the site, you agree to this use of cookies and data.
  • In United Kingdom
  • List of Countries
  • For 7 days
  • Water Temperature
  • Weather Map
  • Weather Widgets
  • user-avatar
    Login

    Hourly Weather Prutz

    Today, 1 June, Monday

    Time Temperature Precipitation Wind Pressure Humidity
    00:00 +3°C° 0 mm 1 mps 633 mmHg 91%
    01:00 +3°C° 0 mm 1 mps 633 mmHg 89%
    02:00 +3°C° 0 mm 1 mps 633 mmHg 87%
    03:00 +3°C° 0 mm 1 mps 633 mmHg 85%
    04:00 +3°C° 0 mm 1 mps 633 mmHg 83%
    05:00 +6°C° 0 mm 1 mps 633 mmHg 75%
    06:00 +8°C° 0 mm 1 mps 634 mmHg 67%
    07:00 +9°C° 0 mm 0 mps 635 mmHg 59%
    08:00 +12°C° 0 mm 1 mps 636 mmHg 55%
    09:00 +14°C° 0 mm 1 mps 636 mmHg 51%
    10:00 +16°C° 0 mm 1 mps 637 mmHg 46%
    11:00 +16°C° 0 mm 1 mps 637 mmHg 45%
    12:00 +17°C° 0 mm 2 mps 637 mmHg 44%
    13:00 +18°C° 0 mm 2 mps 637 mmHg 42%
    14:00 +18°C° 0 mm 2 mps 637 mmHg 45%
    15:00 +18°C° 0 mm 2 mps 636 mmHg 48%
    16:00 +18°C° 0 mm 3 mps 636 mmHg 50%
    17:00 +16°C° 0.2 mm 2 mps 636 mmHg 60%
    18:00 +15°C° 0.2 mm 2 mps 635 mmHg 71%
    19:00 +13°C° 0.2 mm 2 mps 635 mmHg 81%
    20:00 +11°C° 0.2 mm 1 mps 634 mmHg 86%
    21:00 +9°C° 0.2 mm 1 mps 634 mmHg 91%
    22:00 +6°C° 0.2 mm 0 mps 634 mmHg 95%
    23:00 +6°C° 0 mm 0 mps 633 mmHg 95%

    Tomorrow, 2 June, Tuesday

    Time Temperature Precipitation Wind Pressure Humidity
    00:00 +5°C° 0 mm 0 mps 633 mmHg 95%
    01:00 +5°C° 0 mm 0 mps 633 mmHg 95%
    02:00 +5°C° 0 mm 0 mps 633 mmHg 94%
    03:00 +5°C° 0 mm 0 mps 632 mmHg 93%
    04:00 +5°C° 0 mm 1 mps 632 mmHg 92%
    05:00 +8°C° 0 mm 1 mps 633 mmHg 87%
    06:00 +9°C° 0 mm 0 mps 634 mmHg 81%
    07:00 +11°C° 0 mm 0 mps 634 mmHg 76%
    08:00 +13°C° 0 mm 1 mps 635 mmHg 67%
    09:00 +15°C° 0 mm 1 mps 635 mmHg 58%
    10:00 +16°C° 0 mm 2 mps 635 mmHg 49%
    11:00 +17°C° 0.1 mm 2 mps 635 mmHg 48%
    12:00 +17°C° 0.1 mm 2 mps 635 mmHg 46%
    13:00 +18°C° 0.1 mm 3 mps 635 mmHg 44%
    14:00 +18°C° 0.3 mm 3 mps 634 mmHg 47%
    15:00 +17°C° 0.3 mm 3 mps 634 mmHg 50%
    16:00 +17°C° 0.3 mm 3 mps 634 mmHg 52%
    17:00 +16°C° 0.2 mm 2 mps 633 mmHg 59%
    18:00 +14°C° 0.2 mm 2 mps 632 mmHg 66%
    19:00 +13°C° 0.2 mm 2 mps 632 mmHg 73%
    20:00 +11°C° 0 mm 1 mps 631 mmHg 80%
    21:00 +9°C° 0 mm 1 mps 631 mmHg 86%
    22:00 +6°C° 0 mm 0 mps 630 mmHg 92%
    23:00 +5°C° 0 mm 0 mps 630 mmHg 91%

    Day after tomorrow, 3 June, Wednesday

    Time Temperature Precipitation Wind Pressure Humidity
    00:00 +5°C° 0 mm 0 mps 629 mmHg 91%
    01:00 +6°C° 0 mm 1 mps 629 mmHg 91%
    02:00 +6°C° 0 mm 1 mps 629 mmHg 90%
    03:00 +6°C° 0 mm 1 mps 629 mmHg 90%
    04:00 +5°C° 0 mm 1 mps 628 mmHg 89%
    05:00 +7°C° 0 mm 0 mps 629 mmHg 81%
    06:00 +9°C° 0 mm 0 mps 630 mmHg 73%
    07:00 +11°C° 0 mm 0 mps 630 mmHg 64%
    08:00 +13°C° 0 mm 0 mps 631 mmHg 55%
    09:00 +16°C° 0 mm 1 mps 631 mmHg 46%
    10:00 +19°C° 0 mm 1 mps 631 mmHg 37%
    11:00 +19°C° 0 mm 1 mps 631 mmHg 35%
    12:00 +20°C° 0 mm 1 mps 631 mmHg 34%
    13:00 +19°C° 0 mm 2 mps 631 mmHg 32%
    14:00 +19°C° 0.1 mm 2 mps 630 mmHg 36%
    15:00 +19°C° 0.1 mm 2 mps 630 mmHg 40%
    16:00 +18°C° 0.1 mm 2 mps 629 mmHg 44%
    17:00 +17°C° 0.3 mm 2 mps 629 mmHg 55%
    18:00 +15°C° 0.3 mm 1 mps 628 mmHg 65%
    19:00 +14°C° 0.3 mm 1 mps 628 mmHg 76%
    20:00 +13°C° 0.3 mm 1 mps 627 mmHg 79%
    21:00 +11°C° 0.3 mm 1 mps 627 mmHg 83%
    22:00 +10°C° 0.3 mm 1 mps 627 mmHg 86%
    23:00 +9°C° 0.1 mm 2 mps 627 mmHg 88%

    4 June, Thursday

    Time Temperature Precipitation Wind Pressure Humidity
    00:00 +9°C° 0.1 mm 2 mps 627 mmHg 90%
    01:00 +8°C° 0.1 mm 2 mps 626 mmHg 91%
    02:00 +8°C° 0 mm 2 mps 626 mmHg 92%
    03:00 +8°C° 0 mm 2 mps 626 mmHg 92%
    04:00 +8°C° 0 mm 2 mps 626 mmHg 92%
    05:00 +9°C° 0 mm 2 mps 626 mmHg 89%
    06:00 +10°C° 0 mm 2 mps 626 mmHg 86%
    07:00 +12°C° 0 mm 2 mps 626 mmHg 82%
    08:00 +13°C° 0.1 mm 2 mps 627 mmHg 78%
    09:00 +14°C° 0.1 mm 2 mps 627 mmHg 75%
    10:00 +15°C° 0.1 mm 2 mps 627 mmHg 71%
    11:00 +14°C° 0.3 mm 2 mps 627 mmHg 75%
    12:00 +14°C° 0.3 mm 2 mps 627 mmHg 78%
    13:00 +14°C° 0.3 mm 2 mps 626 mmHg 82%
    14:00 +13°C° 1.8 mm 2 mps 626 mmHg 86%
    15:00 +12°C° 1.8 mm 2 mps 626 mmHg 90%
    16:00 +10°C° 1.8 mm 2 mps 626 mmHg 93%
    17:00 +11°C° 0.6 mm 1 mps 626 mmHg 94%
    18:00 +11°C° 0.6 mm 1 mps 626 mmHg 94%
    19:00 +11°C° 0.6 mm 1 mps 626 mmHg 95%
    20:00 +10°C° 1 mm 1 mps 626 mmHg 95%
    21:00 +10°C° 1 mm 1 mps 627 mmHg 96%
    22:00 +9°C° 1 mm 2 mps 627 mmHg 97%
    23:00 +9°C° 0.3 mm 1 mps 626 mmHg 96%

    5 June, Friday

    Time Temperature Precipitation Wind Pressure Humidity
    00:00 +9°C° 0.3 mm 1 mps 626 mmHg 95%
    01:00 +9°C° 0.3 mm 1 mps 626 mmHg 94%
    02:00 +9°C° 0.4 mm 1 mps 626 mmHg 95%
    03:00 +9°C° 0.4 mm 1 mps 626 mmHg 95%
    04:00 +8°C° 0.4 mm 0 mps 626 mmHg 95%
    05:00 +8°C° 0.6 mm 0 mps 626 mmHg 95%
    06:00 +10°C° 0.6 mm 1 mps 627 mmHg 95%
    07:00 +10°C° 0.6 mm 1 mps 627 mmHg 95%
    08:00 +11°C° 0.3 mm 1 mps 627 mmHg 93%
    09:00 +10°C° 0.3 mm 0 mps 627 mmHg 90%
    10:00 +11°C° 0.3 mm 0 mps 628 mmHg 88%
    11:00 +14°C° 0.4 mm 1 mps 628 mmHg 81%
    12:00 +16°C° 0.4 mm 1 mps 628 mmHg 75%
    13:00 +18°C° 0.4 mm 1 mps 629 mmHg 68%
    14:00 +17°C° 1.2 mm 2 mps 628 mmHg 71%
    15:00 +16°C° 1.2 mm 2 mps 628 mmHg 75%
    16:00 +16°C° 1.2 mm 2 mps 628 mmHg 78%
    17:00 +15°C° 1 mm 2 mps 627 mmHg 82%
    18:00 +14°C° 1 mm 2 mps 627 mmHg 86%
    19:00 +13°C° 1 mm 2 mps 627 mmHg 91%
    20:00 +13°C° 1.2 mm 2 mps 627 mmHg 92%
    21:00 +12°C° 1.2 mm 2 mps 627 mmHg 94%
    22:00 +10°C° 1.2 mm 2 mps 627 mmHg 96%
    23:00 +10°C° 2 mm 2 mps 626 mmHg 96%

    6 June, Saturday

    Time Temperature Precipitation Wind Pressure Humidity
    00:00 +9°C° 2 mm 2 mps 626 mmHg 96%
    01:00 +9°C° 2 mm 2 mps 626 mmHg 96%
    02:00 +10°C° 1.1 mm 1 mps 626 mmHg 95%
    03:00 +9°C° 1.1 mm 1 mps 626 mmHg 95%
    04:00 +9°C° 1.1 mm 1 mps 626 mmHg 95%
    05:00 +9°C° 1.7 mm 1 mps 626 mmHg 95%
    06:00 +9°C° 1.7 mm 1 mps 626 mmHg 96%
    07:00 +9°C° 1.7 mm 1 mps 626 mmHg 97%
    08:00 +9°C° 1.4 mm 1 mps 626 mmHg 96%
    09:00 +9°C° 1.4 mm 1 mps 627 mmHg 95%
    10:00 +9°C° 1.4 mm 1 mps 627 mmHg 94%
    11:00 +10°C° 0.5 mm 1 mps 627 mmHg 92%
    12:00 +11°C° 0.5 mm 1 mps 627 mmHg 90%
    13:00 +11°C° 0.5 mm 1 mps 628 mmHg 89%
    14:00 +11°C° 0.1 mm 1 mps 628 mmHg 88%
    15:00 +11°C° 0.1 mm 1 mps 628 mmHg 88%
    16:00 +12°C° 0.1 mm 1 mps 628 mmHg 88%
    17:00 +11°C° 0.1 mm 1 mps 628 mmHg 89%
    18:00 +11°C° 0.1 mm 1 mps 628 mmHg 90%
    19:00 +11°C° 0.1 mm 1 mps 629 mmHg 91%
    20:00 +10°C° 0.1 mm 1 mps 629 mmHg 93%
    21:00 +10°C° 0.1 mm 1 mps 629 mmHg 95%
    22:00 +8°C° 0.1 mm 0 mps 629 mmHg 97%
    23:00 +8°C° 0 mm 0 mps 629 mmHg 97%
    Show more